Temperature
22 21 21 21 23 25 27 28 29 29 30 29 29 29 28 27 25 23 23 23 22 21 21 21 21 21 20 20 20 20 20 20 20 20 19 19 19 19 19 19 19 19 19 19 19 19 19 19 19
21 21 21 23 25 27 27 29 29 30 30 29 29 28 27 26 25 23 23 22 22 21 21 21 21 21 20 20 20 20 20 20 20 20 19 19 19 19 19 19 19 19 19 19 19 19 19 19 19
22 22 23 25 27 28 28 30 30 30 30 30 29 28 27 25 24 23 23 23 22 21 21 21 21 21 20 20 20 20 20 20 20 19 19 19 19 19 19 19 19 19 19 19 19 19 19 19 19
22 24 25 27 28 30 30 31 31 31 30 30 29 27 26 25 24 23 23 23 22 21 21 21 21 21 20 20 20 20 20 20 20 19 19 19 19 19 19 19 19 19 19 19 19 19 19 19 19
24 25 27 28 29 31 32 31 31 31 31 30 28 27 25 24 24 24 23 23 22 22 21 21 21 21 20 20 20 20 20 20 20 19 19 19 19 19 19 19 19 19 19 19 19 19 19 19 19
26 27 27 28 30 31 32 31 32 31 31 30 28 27 25 24 24 24 24 23 23 22 22 21 21 21 21 20 20 20 20 20 20 19 19 19 19 19 19 19 19 19 19 19 19 19 19 19 19
27 28 28 29 30 31 32 32 32 31 31 30 29 27 25 24 24 24 24 23 23 22 22 21 21 21 21 21 20 20 20 20 20 20 19 19 19 19 19 19 19 19 19 19 19 19 19 19 19
28 29 29 30 30 31 32 32 31 31 31 30 29 27 25 24 24 24 24 23 23 22 22 21 21 21 21 21 20 20 20 20 20 20 19 19 19 19 19 19 19 19 19 19 19 19 19 19 19
30 29 29 31 31 31 32 32 31 31 30 29 28 27 25 24 24 24 24 23 23 22 22 22 21 21 21 21 21 20 20 20 20 20 19 19 19 19 19 19 19 19 19 19 19 19 19 19 19
30 29 31 32 33 32 33 32 31 31 30 29 27 26 25 25 24 24 24 23 23 23 22 22 22 21 21 20 20 20 20 20 20 19 19 19 19 19 19 19 19 19 19 19 19 19 19 19 19
31 31 33 33 33 32 33 32 32 31 30 29 28 26 26 25 25 25 24 24 23 23 23 22 22 22 21 21 20 20 20 20 19 19 19 19 19 19 19 19 19 19 19 19 19 19 19 19 19
32 32 33 33 33 32 33 32 32 31 30 29 28 27 26 25 25 25 25 24 24 23 22 22 22 22 21 21 20 20 20 20 20 20 19 19 19 19 19 19 19 19 19 19 18 19 18 18 19
33 33 33 33 33 33 33 32 31 31 30 29 28 27 27 26 25 25 25 24 23 23 22 22 22 21 21 21 20 20 20 20 20 20 20 19 19 19 19 19 19 19 19 19 19 19 18 18 19
34 33 33 33 33 33 33 32 32 31 30 30 29 28 27 26 26 25 24 24 23 23 22 22 21 21 21 20 20 20 20 20 20 20 20 19 19 19 19 19 19 19 19 19 19 19 19 19 19
33 33 33 34 34 33 33 32 32 31 30 30 29 28 27 26 26 25 24 24 23 22 22 22 21 21 21 20 20 20 20 20 20 20 20 19 19 19 19 19 19 19 19 19 19 19 19 19 19
32 31 31 33 34 34 32 30 31 31 31 30 29 28 27 27 26 25 24 24 23 22 22 21 21 21 21 20 20 20 20 20 20 20 20 19 19 19 19 19 19 19 19 19 19 19 19 19 19
31 30 31 32 34 34 33 31 32 32 31 31 30 29 28 27 26 25 25 24 23 22 22 21 21 21 20 20 20 20 20 20 20 19 19 19 19 19 19 19 19 19 19 19 19 19 18 19 19
30 31 31 32 34 34 33 32 32 32 32 31 30 29 28 27 26 25 25 24 23 22 21 21 21 20 20 20 20 20 20 19 19 19 19 19 19 19 19 19 19 19 19 19 19 19 19 19 19
32 32 32 33 35 34 33 33 33 33 32 32 31 30 29 28 27 26 25 24 23 22 21 21 21 20 20 20 20 20 19 19 19 19 19 19 19 19 19 19 19 19 19 19 19 19 19 19 19
33 33 32 34 35 34 33 33 33 33 33 32 31 30 29 28 27 26 25 24 23 22 21 21 21 20 20 20 20 20 20 19 19 19 19 19 19 19 19 19 19 19 19 19 19 19 19 19 19
33 33 33 33 34 34 32 31 32 33 33 32 32 31 30 28 27 26 25 24 23 22 22 21 21 20 20 20 20 20 19 19 19 19 19 19 19 19 19 19 19 19 19 19 19 19 19 18 19
32 34 34 34 32 31 32 30 30 32 32 32 32 31 30 29 27 26 25 24 23 22 22 21 21 20 20 20 20 20 20 19 19 19 19 19 19 19 19 19 19 19 19 19 19 18 18 18 18
33 35 34 34 32 31 32 30 30 31 31 32 32 32 30 29 28 27 26 25 24 23 22 21 21 21 20 20 20 20 20 20 20 19 19 19 19 19 19 19 19 19 19 19 19 18 18 18 18
34 34 33 32 31 30 31 30 30 31 31 32 33 32 30 29 28 27 26 25 24 23 22 21 21 21 20 20 20 20 20 20 19 19 19 19 19 19 19 19 19 19 19 19 19 19 18 18 18
34 32 30 30 29 30 31 31 31 33 33 33 33 32 31 29 28 27 26 24 24 23 22 22 21 21 21 20 20 20 20 20 19 19 19 19 19 19 19 19 19 19 19 19 18 18 18 18 18
33 32 30 29 30 30 30 30 32 33 34 33 33 32 31 29 28 27 26 25 24 23 23 22 21 21 21 20 20 20 20 20 19 19 19 19 19 19 19 19 19 19 19 18 18 18 18 18 18
32 32 32 31 31 30 29 30 31 33 33 33 32 32 30 29 28 27 26 25 24 23 23 22 22 21 21 21 20 20 20 20 19 19 19 19 19 19 19 19 19 19 18 18 18 18 18 18 18
34 33 32 31 29 29 29 29 30 31 32 32 32 31 30 29 28 27 26 25 24 24 23 22 21 21 21 20 20 20 20 20 19 19 19 19 19 19 19 19 18 18 18 18 18 18 18 18 18
32 32 32 31 31 30 29 29 31 31 32 31 31 31 30 29 28 27 26 26 25 24 23 22 21 21 21 20 20 20 20 20 19 19 19 19 19 19 19 18 18 18 18 18 18 18 18 17 17
33 33 32 30 30 31 30 29 32 32 32 31 30 29 29 28 28 27 26 25 24 24 23 22 21 21 21 20 20 20 19 19 19 19 19 19 19 19 18 18 18 18 18 18 17 17 17 17 17
Wind_Speed
10 10 8 5 4 1 6 8 10 10 9 10 9 10 12 13 9 8 7 11 15 14 14 14 14 14 14 13 12 12 12 11 11 11 10 11 11 10 10 10 10 10 10 9 9 8 8 8 8
10 9 6 4 2 3 7 9 10 9 8 9 10 13 14 12 11 9 9 11 14 15 14 15 15 15 14 13 12 12 11 11 11 11 11 11 10 10 10 9 9 9 9 8 8 7 7 7 7
10 10 5 4 1 5 8 9 8 9 8 9 10 12 10 8 9 8 10 13 14 15 16 17 16 15 14 13 12 11 11 12 12 11 11 11 10 10 9 9 9 8 8 8 7 7 6 6 6
7 6 5 2 4 7 8 8 7 9 9 9 10 9 9 9 9 11 13 14 15 16 17 17 17 15 14 13 12 11 12 12 12 11 11 10 10 9 9 9 8 8 7 7 7 6 6 6 6
8 5 3 2 5 8 9 8 8 9 10 11 13 12 10 11 13 13 13 14 15 16 16 18 17 16 14 13 12 12 13 13 12 11 11 10 9 9 9 9 8 7 7 7 6 6 5 5 5
4 4 1 4 7 8 8 8 8 10 10 11 12 12 9 11 11 12 12 12 14 16 16 17 17 16 15 14 12 12 12 12 11 11 10 10 9 8 8 8 7 7 7 6 6 5 4 4 4
6 2 1 3 6 7 8 8 9 8 9 9 11 11 9 11 10 11 12 12 13 15 15 14 15 15 15 14 13 12 11 11 10 10 9 9 9 8 8 8 7 7 6 6 5 4 4 4 5
7 3 0 4 6 8 8 8 9 8 9 8 8 8 9 11 12 12 12 11 11 12 13 13 13 14 13 13 13 12 12 11 10 9 9 9 8 7 8 8 7 7 7 6 5 5 5 5 6
7 1 1 5 7 7 8 8 9 8 10 11 12 13 14 15 15 12 11 11 10 9 9 10 11 11 12 12 13 12 11 10 10 9 9 8 6 6 7 8 8 7 7 6 6 6 6 6 6
2 0 3 5 6 7 7 7 7 7 9 11 12 15 15 14 13 12 11 11 11 10 9 8 8 9 9 9 10 9 9 9 8 8 8 6 5 5 6 9 9 7 6 5 6 7 7 7 6
2 1 3 5 5 5 5 6 7 7 8 8 11 14 14 13 11 11 11 10 10 10 8 8 7 7 7 6 6 4 5 6 7 7 6 5 4 4 5 5 6 6 5 5 5 7 6 6 4
2 2 1 3 4 3 4 6 7 7 8 9 12 14 13 12 10 10 10 10 10 10 9 8 8 6 6 5 4 4 3 4 4 6 5 4 2 2 2 2 3 3 3 3 3 3 4 3 2
2 3 1 3 4 3 5 6 7 7 8 9 11 12 12 12 10 9 9 9 10 10 9 8 8 7 5 4 2 4 3 3 5 6 4 4 3 2 2 1 1 1 1 1 1 1 1 2 1
2 1 1 3 4 4 5 6 6 6 8 9 10 10 11 10 10 10 10 10 10 9 9 9 8 8 5 4 2 2 3 3 4 5 5 4 3 3 2 1 1 1 1 2 2 1 1 1 2
2 0 3 4 5 5 5 4 5 6 8 9 9 9 9 9 10 10 10 10 10 9 8 8 8 8 5 4 3 3 3 4 3 5 6 4 3 3 1 1 1 1 2 2 2 1 1 2 2
3 4 5 5 4 6 4 4 5 7 7 8 9 10 10 9 10 11 11 10 10 9 8 6 7 8 6 4 2 2 2 3 3 4 5 4 4 3 1 1 2 2 1 1 1 0 1 1 0
7 8 7 5 5 5 5 5 7 8 8 9 9 10 11 10 10 11 11 11 11 9 8 7 6 7 6 5 3 2 2 2 2 3 4 4 3 3 2 1 1 2 1 1 1 1 0 1 1
7 7 5 5 5 5 5 6 8 8 8 9 10 10 11 11 10 11 11 12 11 10 8 7 7 6 6 5 3 2 2 3 2 2 3 4 3 2 1 1 1 1 1 0 1 1 1 1 1
9 7 4 4 6 5 5 5 7 9 9 8 9 10 11 11 12 12 11 12 12 11 9 8 7 7 5 4 4 3 3 3 3 3 4 4 3 2 1 0 0 0 1 0 0 0 1 1 1
8 7 6 6 5 4 2 4 6 7 8 10 10 11 12 12 13 12 12 11 12 11 10 9 8 7 6 5 3 3 4 3 3 2 3 3 3 2 1 1 0 0 1 1 0 0 1 1 0
10 9 9 6 4 4 4 5 5 9 8 8 10 10 11 13 14 13 12 11 12 12 11 9 8 7 7 7 5 4 3 2 2 3 3 2 2 2 1 1 1 0 1 1 1 1 1 1 1
11 10 9 8 6 6 6 5 6 7 9 9 9 11 12 12 14 14 13 12 12 13 12 10 9 8 7 7 6 6 5 4 3 3 3 3 3 2 2 1 1 1 0 0 1 0 1 1 2
11 9 8 8 7 8 8 6 7 8 8 11 12 12 12 13 14 14 13 12 12 13 13 11 10 8 7 6 6 5 4 4 3 3 4 3 3 3 2 2 2 1 0 0 1 1 1 1 2
9 9 8 8 8 10 10 8 6 8 10 11 11 12 12 12 12 12 12 11 11 12 12 12 11 9 8 8 7 5 4 4 4 4 4 3 3 3 3 3 2 1 0 0 0 1 1 1 2
9 9 7 8 8 8 8 7 3 7 8 8 10 12 12 12 12 12 12 12 10 11 12 12 12 10 9 9 7 7 5 5 4 4 3 3 3 3 2 3 2 2 1 1 1 1 1 1 2
10 10 8 8 7 5 3 5 4 6 7 7 8 10 12 12 11 11 12 12 11 11 11 12 12 10 9 8 6 6 6 5 4 4 3 3 2 2 3 3 3 2 2 1 1 1 1 1 2
11 10 11 11 11 6 4 5 1 6 7 6 8 10 11 10 11 11 11 12 12 12 12 12 12 11 10 9 7 6 5 4 4 4 3 2 2 2 3 3 3 2 2 1 1 1 1 1 1
13 10 7 7 7 8 5 5 4 6 6 6 6 9 11 10 10 10 10 10 11 11 11 11 11 10 9 9 8 7 6 4 3 3 2 2 1 1 2 3 3 3 2 1 1 1 0 0 1
12 13 9 8 8 8 6 3 1 5 6 6 6 8 9 9 9 8 8 9 11 12 12 11 10 9 9 8 7 6 6 6 5 4 3 2 2 2 2 2 2 2 2 2 2 2 1 1 1
12 12 11 9 9 9 8 4 1 2 6 6 6 6 8 7 6 6 8 8 8 10 11 11 10 10 8 8 7 6 6 6 6 5 4 3 3 2 3 3 3 3 3 2 2 2 2 1 2
Wind_Direction
195 208 215 239 248 234 57 57 59 58 57 56 54 61 60 53 63 91 106 108 113 119 122 120 119 120 119 118 118 118 117 117 117 118 120 121 122 123 124 125 125 127 130 131 131 131 129 128 129
215 215 225 242 259 73 65 65 66 59 63 69 64 67 67 64 76 100 111 116 118 119 120 119 120 120 120 119 118 119 121 121 119 117 119 121 122 123 125 126 128 131 133 136 136 135 135 137 141
238 238 249 239 26 65 70 70 74 74 69 75 74 63 64 76 84 105 123 123 116 115 117 120 122 121 121 119 117 118 124 127 124 120 119 122 123 125 126 125 128 130 132 135 136 140 142 146 154
231 235 242 252 54 61 70 75 79 80 73 69 78 73 71 79 100 118 127 122 114 114 117 123 123 124 124 120 117 113 119 126 124 121 121 122 123 125 127 129 131 133 134 135 137 143 148 158 169
240 267 254 64 66 69 71 70 70 76 73 75 79 90 86 91 105 117 122 118 115 117 119 125 126 128 126 123 120 117 116 120 121 120 119 123 124 123 127 130 133 134 135 135 139 145 150 163 182
262 253 311 67 73 69 76 79 75 78 81 88 94 97 97 110 117 122 117 117 117 118 121 127 130 131 130 128 125 123 122 122 121 121 122 125 128 128 133 137 139 137 136 136 141 148 156 178 198
258 265 104 86 83 71 69 74 75 77 78 83 100 106 117 123 126 125 118 116 120 122 125 132 138 139 136 133 132 129 126 125 125 127 128 127 130 136 141 145 146 143 143 142 147 158 174 192 215
258 287 37 101 84 76 76 72 71 75 75 79 94 107 124 132 133 127 123 121 118 121 129 138 143 144 146 143 143 140 137 137 139 139 139 138 143 149 151 151 152 151 151 155 163 181 190 203 220
266 279 11 85 89 90 86 84 82 81 84 75 74 98 121 130 133 130 125 122 122 122 128 134 136 141 144 144 145 151 147 148 149 151 154 159 164 159 157 145 149 158 161 167 179 196 203 212 222
256 298 69 78 90 91 88 93 97 97 95 91 93 106 123 132 139 139 135 136 137 136 128 125 127 131 135 130 138 153 153 155 162 156 161 175 160 142 132 137 152 160 166 176 191 204 211 220 219
219 228 91 92 91 85 91 93 90 97 98 113 123 127 132 137 143 141 140 140 137 134 125 124 120 120 118 117 134 144 140 147 159 151 160 140 124 128 126 141 150 165 175 190 191 203 211 216 208
182 252 156 108 108 115 93 86 84 80 98 120 127 135 140 144 145 142 136 134 133 129 127 119 113 106 103 118 130 136 139 152 142 139 142 125 127 117 119 124 138 160 171 180 181 197 197 209 203
191 221 184 152 145 128 103 97 96 97 106 121 126 136 140 144 144 141 138 134 128 128 128 118 114 104 94 93 124 129 122 129 129 129 126 121 123 114 102 87 107 144 153 157 181 209 181 191 211
230 198 243 179 158 158 131 128 122 120 133 129 131 137 143 144 146 143 143 137 132 128 126 120 119 114 117 123 120 114 124 116 121 123 118 118 117 110 108 105 121 212 175 170 204 221 202 197 204
319 77 260 217 186 153 136 134 127 140 145 142 139 138 144 149 149 147 143 139 134 129 126 127 132 128 132 135 145 126 123 120 115 117 119 120 114 115 130 151 181 193 198 195 202 232 230 218 212
267 259 243 234 199 169 185 154 148 157 159 150 151 151 151 153 150 145 142 139 134 133 132 134 137 135 136 132 133 120 110 115 112 120 125 121 112 127 149 165 170 187 198 209 188 207 266 266 231
228 233 228 225 225 202 195 163 164 174 167 156 161 157 155 154 153 147 148 145 140 137 135 138 134 136 140 142 140 118 99 95 113 118 125 129 129 145 159 155 183 183 198 212 197 146 204 269 244
245 225 221 221 216 218 190 165 175 174 173 164 162 158 158 156 159 150 149 148 144 141 141 146 145 143 147 145 138 130 124 136 134 123 126 121 131 134 166 178 215 192 168 100 44 43 338 317 302
247 257 241 240 226 221 195 178 186 178 178 165 165 164 162 161 159 151 152 150 147 146 149 154 155 154 152 154 162 156 153 156 153 153 135 134 140 143 151 317 107 251 134 172 195 89 314 279 214
259 272 258 241 237 242 217 202 196 194 188 173 173 172 170 166 158 154 158 158 156 155 156 161 165 162 159 160 164 159 158 162 163 144 127 144 154 163 173 198 221 287 110 77 15 343 290 274 188
266 262 261 262 266 259 239 228 204 198 194 180 175 174 169 167 163 162 166 164 161 161 164 165 161 166 167 165 166 159 151 162 148 144 141 161 160 160 254 150 214 286 168 126 190 232 256 286 295
254 258 267 273 267 258 242 242 218 211 192 191 187 172 168 169 165 165 168 169 168 166 163 158 160 165 168 171 173 173 166 166 169 160 157 174 173 179 192 151 179 277 37 77 265 120 271 281 296
260 272 276 279 274 272 266 256 223 204 205 196 190 175 171 171 165 167 170 169 169 166 162 159 158 163 166 172 176 182 170 171 156 154 162 177 175 175 175 159 180 186 145 68 355 20 351 331 311
263 272 275 270 264 257 256 257 220 199 199 199 184 168 166 164 161 163 163 161 167 165 162 159 159 164 169 175 179 177 179 177 158 169 175 191 185 170 179 166 170 178 197 131 251 304 307 318 313
248 253 254 252 239 240 250 248 216 187 181 187 165 161 158 159 160 162 160 164 170 168 163 159 160 165 172 176 179 173 183 185 176 181 190 204 192 176 175 175 165 182 203 206 191 238 295 286 293
238 242 249 266 271 275 281 257 221 166 158 155 154 156 154 157 160 162 162 163 167 168 161 158 158 162 168 170 175 177 189 192 188 201 205 199 200 170 163 170 167 184 210 225 223 237 245 281 282
236 240 251 264 275 279 247 254 222 147 141 146 152 150 148 152 154 162 165 165 166 165 163 161 156 162 168 170 170 176 182 186 191 194 202 195 195 189 163 173 171 179 191 223 236 247 271 304 283
246 250 258 269 278 276 262 247 225 178 151 144 155 152 145 147 153 159 162 159 160 162 160 154 155 163 168 170 177 178 173 181 193 202 182 196 178 186 172 179 178 177 184 212 214 254 265 315 299
229 245 251 264 272 279 274 266 237 162 160 152 152 140 142 154 154 153 153 154 157 157 158 159 159 163 171 172 171 166 174 181 180 183 180 178 189 181 177 181 183 178 184 198 199 237 225 241 278
238 240 240 245 259 271 277 284 305 128 118 117 117 118 131 129 129 135 140 142 149 156 158 159 162 166 173 170 166 171 173 176 180 179 176 181 188 193 177 180 193 202 199 194 213 242 233 235 262
Height
1485 1486 1487 1490 1488 1485 1481 1472 1466 1466 1466 1467 1468 1469 1473 1477 1483 1494 1494 1493 1493 1493 1495 1496 1496 1498 1499 1501 1502 1503 1505 1506 1508 1510 1512 1514 1516 1517 1519 1521 1523 1525 1526 1528 1529 1531 1532 1533 1535
1485 1488 1490 1489 1486 1488 1484 1471 1469 1468 1468 1469 1470 1472 1476 1481 1486 1490 1493 1494 1495 1495 1496 1497 1498 1499 1501 1502 1503 1504 1505 1507 1509 1511 1513 1515 1517 1518 1520 1522 1524 1526 1527 1528 1530 1531 1533 1534 1535
1486 1489 1490 1484 1480 1482 1480 1470 1468 1467 1468 1469 1472 1476 1480 1485 1488 1491 1493 1495 1496 1497 1497 1499 1500 1501 1502 1503 1504 1503 1502 1506 1509 1512 1514 1516 1518 1519 1521 1523 1524 1526 1528 1529 1530 1532 1533 1535 1536
1488 1489 1487 1480 1479 1471 1468 1467 1466 1467 1469 1470 1473 1479 1485 1488 1490 1493 1494 1496 1497 1498 1499 1500 1502 1503 1504 1505 1505 1503 1501 1505 1510 1513 1515 1517 1519 1520 1522 1524 1525 1527 1528 1530 1531 1532 1534 1535 1536
1490 1487 1484 1481 1476 1467 1465 1466 1466 1468 1470 1473 1476 1483 1488 1491 1492 1494 1496 1497 1498 1500 1501 1502 1503 1505 1506 1507 1507 1507 1506 1508 1512 1515 1516 1518 1520 1522 1523 1525 1526 1528 1529 1530 1531 1533 1534 1535 1536
1489 1484 1486 1485 1476 1467 1465 1467 1467 1469 1471 1474 1478 1483 1490 1493 1494 1496 1497 1499 1500 1502 1503 1504 1506 1507 1508 1509 1510 1510 1511 1513 1515 1516 1518 1520 1521 1523 1524 1526 1527 1529 1530 1531 1532 1533 1534 1535 1536
1486 1481 1484 1481 1476 1472 1467 1467 1469 1470 1472 1475 1478 1483 1489 1492 1494 1496 1499 1501 1502 1504 1505 1506 1508 1509 1510 1512 1513 1513 1514 1515 1517 1519 1520 1521 1523 1524 1526 1527 1528 1529 1531 1531 1532 1533 1534 1535 1536
1481 1478 1479 1477 1476 1474 1469 1469 1471 1472 1474 1477 1478 1482 1489 1491 1494 1497 1500 1502 1504 1506 1508 1509 1510 1511 1512 1513 1515 1516 1517 1518 1519 1520 1522 1523 1524 1526 1527 1528 1529 1530 1531 1532 1533 1533 1534 1535 1536
1477 1480 1481 1474 1474 1472 1469 1471 1473 1475 1477 1479 1481 1484 1489 1492 1495 1498 1501 1504 1506 1508 1510 1511 1513 1514 1515 1516 1517 1518 1519 1520 1521 1522 1523 1525 1526 1527 1528 1529 1530 1531 1531 1532 1533 1534 1535 1535 1536
1475 1481 1475 1467 1467 1468 1469 1471 1473 1476 1478 1482 1485 1489 1492 1494 1496 1499 1502 1504 1507 1509 1511 1513 1515 1516 1517 1519 1519 1520 1521 1522 1523 1524 1525 1526 1527 1529 1530 1530 1531 1532 1532 1533 1534 1534 1535 1535 1536
1474 1474 1467 1467 1468 1470 1470 1471 1473 1475 1479 1484 1486 1490 1493 1495 1498 1500 1503 1505 1508 1510 1512 1514 1516 1517 1519 1520 1521 1522 1523 1523 1524 1525 1526 1528 1529 1530 1531 1531 1532 1532 1533 1533 1534 1534 1535 1535 1536
1472 1469 1467 1467 1468 1470 1470 1472 1474 1477 1481 1483 1486 1490 1493 1496 1498 1501 1503 1506 1508 1511 1513 1515 1516 1518 1519 1520 1522 1523 1523 1524 1525 1526 1527 1529 1530 1531 1531 1532 1532 1533 1533 1534 1534 1534 1535 1536 1537
1469 1468 1467 1467 1469 1469 1470 1473 1475 1478 1482 1484 1487 1490 1493 1495 1498 1502 1504 1507 1509 1511 1513 1515 1516 1518 1519 1521 1522 1524 1524 1525 1526 1527 1528 1529 1530 1531 1532 1533 1533 1533 1534 1534 1534 1534 1535 1535 1536
1467 1467 1466 1466 1467 1468 1470 1473 1476 1479 1481 1484 1487 1490 1493 1496 1498 1501 1504 1506 1509 1511 1513 1515 1517 1518 1519 1521 1523 1524 1525 1526 1527 1528 1529 1530 1531 1531 1532 1533 1533 1533 1534 1534 1534 1534 1534 1535 1535
1469 1469 1469 1465 1465 1467 1470 1475 1475 1479 1480 1483 1486 1489 1493 1496 1498 1501 1504 1506 1509 1511 1513 1515 1517 1518 1520 1522 1524 1525 1526 1527 1528 1528 1529 1530 1531 1532 1532 1532 1533 1533 1534 1534 1534 1534 1534 1534 1534
1472 1476 1479 1467 1462 1464 1472 1484 1476 1477 1479 1482 1485 1488 1492 1495 1498 1501 1504 1506 1509 1511 1513 1515 1517 1518 1520 1522 1523 1525 1526 1527 1528 1528 1529 1530 1531 1531 1532 1532 1533 1533 1533 1534 1534 1534 1534 1533 1532
1477 1485 1480 1470 1461 1461 1467 1476 1472 1474 1477 1480 1484 1487 1491 1495 1498 1501 1503 1506 1508 1510 1513 1515 1517 1518 1520 1521 1523 1525 1526 1527 1528 1529 1529 1530 1531 1531 1532 1532 1533 1533 1533 1534 1534 1533 1533 1533 1532
1480 1476 1475 1470 1460 1459 1464 1469 1469 1471 1473 1477 1481 1486 1489 1493 1497 1500 1503 1505 1507 1510 1512 1514 1516 1517 1519 1521 1522 1524 1526 1527 1528 1529 1529 1530 1531 1531 1532 1532 1533 1533 1533 1533 1533 1533 1533 1533 1532
1465 1467 1470 1464 1455 1457 1462 1466 1465 1467 1470 1474 1479 1483 1487 1491 1496 1499 1502 1505 1507 1509 1511 1513 1515 1516 1519 1520 1522 1523 1525 1527 1528 1528 1529 1530 1530 1531 1531 1532 1532 1532 1533 1533 1533 1533 1533 1533 1533
1462 1466 1467 1459 1452 1456 1463 1465 1462 1464 1467 1471 1475 1480 1484 1489 1493 1497 1501 1503 1505 1507 1509 1511 1513 1515 1517 1519 1521 1523 1524 1526 1527 1528 1528 1529 1530 1530 1531 1531 1531 1532 1532 1532 1532 1532 1532 1533 1533
1463 1466 1463 1460 1456 1456 1463 1470 1465 1461 1465 1469 1472 1476 1480 1485 1490 1495 1498 1501 1503 1506 1508 1510 1512 1514 1516 1518 1520 1522 1524 1525 1527 1527 1528 1528 1529 1530 1530 1530 1531 1531 1531 1531 1531 1531 1532 1532 1533
1467 1455 1455 1457 1466 1470 1467 1487 1472 1463 1463 1466 1469 1473 1477 1483 1487 1491 1496 1499 1501 1504 1506 1508 1510 1513 1515 1517 1519 1521 1522 1524 1525 1526 1527 1528 1528 1529 1529 1530 1530 1530 1530 1531 1531 1531 1531 1532 1532
1457 1450 1453 1457 1465 1472 1467 1479 1476 1463 1466 1463 1464 1469 1474 1479 1484 1489 1493 1496 1499 1502 1504 1506 1508 1511 1513 1515 1518 1520 1521 1523 1524 1525 1526 1527 1528 1528 1528 1529 1529 1529 1530 1530 1530 1530 1530 1530 1531
1451 1453 1456 1460 1468 1486 1473 1477 1478 1461 1461 1458 1459 1464 1470 1476 1481 1486 1490 1494 1497 1500 1502 1504 1507 1509 1512 1514 1516 1518 1520 1522 1523 1524 1526 1527 1527 1527 1527 1528 1528 1528 1528 1529 1529 1529 1529 1529 1530
1453 1465 1481 1486 1488 1485 1464 1468 1467 1450 1450 1452 1455 1461 1468 1474 1478 1483 1487 1491 1495 1498 1500 1502 1504 1507 1510 1512 1514 1517 1519 1520 1522 1523 1524 1525 1526 1526 1526 1527 1527 1527 1527 1528 1528 1528 1528 1528 1528
1455 1461 1483 1495 1491 1480 1469 1473 1457 1445 1447 1450 1455 1459 1466 1471 1476 1481 1485 1488 1492 1495 1498 1500 1503 1505 1508 1510 1512 1515 1517 1518 1520 1521 1523 1524 1524 1525 1525 1525 1526 1526 1526 1526 1527 1527 1527 1527 1527
1456 1458 1455 1467 1472 1483 1479 1469 1455 1446 1448 1451 1455 1459 1465 1470 1474 1479 1482 1486 1490 1493 1496 1498 1501 1504 1506 1508 1511 1513 1515 1517 1518 1520 1521 1522 1523 1523 1524 1524 1524 1524 1525 1525 1525 1525 1525 1526 1525
1447 1450 1458 1469 1486 1492 1484 1476 1468 1455 1451 1451 1455 1458 1464 1470 1474 1477 1481 1485 1488 1491 1494 1497 1499 1502 1505 1507 1509 1511 1513 1515 1516 1518 1519 1520 1520 1521 1522 1522 1523 1523 1523 1523 1524 1523 1524 1524 1524
1452 1453 1456 1461 1465 1482 1491 1480 1452 1451 1449 1451 1454 1458 1463 1468 1473 1477 1481 1484 1487 1490 1493 1495 1498 1501 1503 1506 1508 1510 1511 1513 1514 1515 1517 1517 1518 1519 1519 1520 1521 1521 1521 1521 1522 1522 1522 1522 1522
1444 1448 1452 1469 1472 1466 1476 1477 1445 1445 1447 1451 1455 1460 1464 1468 1472 1476 1480 1483 1486 1488 1491 1494 1497 1499 1502 1504 1506 1508 1509 1511 1512 1513 1514 1515 1516 1516 1517 1518 1518 1519 1519 1519 1520 1520 1520 1520 1520